TimeAKDT,TemperatureF,Dew PointF,Humidity,Sea Level PressureIn,VisibilityMPH,Wind Direction,Wind SpeedMPH,Gust SpeedMPH,PrecipitationIn,Events,Conditions,WindDirDegrees,DateUTC
12:53 AM,50.0,50.0,100,30.12,10.0,Calm,Calm,-,N/A,,Clear,0,2013-09-10 08:53:00
1:53 AM,48.9,48.9,100,30.12,10.0,Calm,Calm,-,N/A,,Clear,0,2013-09-10 09:53:00
2:53 AM,46.9,46.9,100,30.11,10.0,Calm,Calm,-,N/A,,Clear,0,2013-09-10 10:53:00
3:53 AM,46.9,46.9,100,30.11,10.0,Calm,Calm,-,N/A,,Clear,0,2013-09-10 11:53:00
4:53 AM,48.0,48.0,100,30.11,10.0,Calm,Calm,-,N/A,,Clear,0,2013-09-10 12:53:00
5:53 AM,50.0,50.0,100,30.10,10.0,South,3.5,-,N/A,,Partly Cloudy,170,2013-09-10 13:53:00
6:15 AM,48.2,48.2,100,30.10,10.0,Calm,Calm,-,N/A,,Partly Cloudy,0,2013-09-10 14:15:00
6:53 AM,48.9,48.9,100,30.11,10.0,SSE,4.6,-,N/A,,Scattered Clouds,150,2013-09-10 14:53:00
7:53 AM,53.1,52.0,96,30.11,10.0,NW,3.5,-,N/A,,Mostly Cloudy,320,2013-09-10 15:53:00
8:53 AM,55.0,53.1,93,30.12,10.0,ESE,3.5,-,N/A,,Mostly Cloudy,120,2013-09-10 16:53:00
9:53 AM,55.9,54.0,93,30.11,10.0,SE,4.6,-,N/A,,Mostly Cloudy,140,2013-09-10 17:53:00
10:53 AM,61.0,52.0,72,30.11,10.0,ESE,8.1,-,N/A,,Scattered Clouds,110,2013-09-10 18:53:00
11:53 AM,62.1,53.1,72,30.12,10.0,ESE,6.9,-,N/A,,Scattered Clouds,120,2013-09-10 19:53:00
12:53 PM,64.0,52.0,65,30.11,10.0,ESE,8.1,-,N/A,,Mostly Cloudy,120,2013-09-10 20:53:00
1:53 PM,66.9,50.0,54,30.09,10.0,SE,8.1,-,N/A,,Mostly Cloudy,130,2013-09-10 21:53:00
2:53 PM,64.0,51.1,63,30.09,10.0,NNW,4.6,-,N/A,,Mostly Cloudy,340,2013-09-10 22:53:00
3:53 PM,63.0,54.0,72,30.09,10.0,Calm,Calm,-,0.00,Rain,Light Rain,0,2013-09-10 23:53:00
4:53 PM,61.0,53.1,75,30.09,10.0,NW,4.6,-,0.00,,Overcast,310,2013-09-11 00:53:00
5:53 PM,61.0,53.1,75,30.09,10.0,WNW,4.6,-,N/A,,Overcast,300,2013-09-11 01:53:00
6:53 PM,62.1,54.0,75,30.09,10.0,Calm,Calm,-,N/A,,Overcast,0,2013-09-11 02:53:00
7:53 PM,61.0,54.0,78,30.10,10.0,Calm,Calm,-,N/A,,Overcast,0,2013-09-11 03:53:00
8:53 PM,60.1,55.0,83,30.09,10.0,Calm,Calm,-,N/A,,Overcast,0,2013-09-11 04:53:00
9:53 PM,59.0,54.0,83,30.09,10.0,Calm,Calm,-,N/A,,Overcast,0,2013-09-11 05:53:00
10:53 PM,59.0,55.9,90,30.09,10.0,Calm,Calm,-,N/A,,Overcast,0,2013-09-11 06:53:00
11:53 PM,55.9,53.1,90,30.09,10.0,Calm,Calm,-,N/A,,Clear,0,2013-09-11 07:53:00